Home   Weather   Makassar   Past weeks

Flag for Indonesia Past Weather in Makassar, South Sulawesi, Indonesia — Yesterday and Last 2 Weeks

Now
81 °F

Passing clouds.


Feels Like: 85 °F
Forecast: 74 / 88 °F
Wind: 2 mph from Southeast

Location: Ujung Pandang / Hasanuddin

Current Time: Apr 29, 2017 at 11:48:12 pm

Latest Report: Apr 29, 2017 at 11:00 pm


Visibility: 5 mi

Pressure: 29.89 "Hg

Humidity: 79%

Dew Point: 73 °F

Location of MakassarLocation

Past Weather in Makassar — Graph

°F

Makassar Temperature Yesterday

Maximum temperature yesterday: 90 °F (at 11:30 am)
Minimum temperature yesterday: 77 °F (at 2:30 am)
Average temperature yesterday: 83 °F

High & Low Weather Summary for the Past Weeks

 TemperatureHumidityPressure
High93 °F (Apr 16, 12:30 pm)100% (Apr 15, 12:30 am)29.92 "Hg (Apr 15, 12:30 am)
Low72 °F (Apr 26, 5:30 am)52% (Apr 21, 11:30 am)29.74 "Hg (Apr 15, 2:30 pm)
Average82 °F80%29.83 "Hg
* Reported Apr 14 10:00 pm — Apr 29 10:30 pm, Makassar, Weather by CustomWeather, © 2017

Note: Actual official high and low records may vary slightly from our data, if they occured in-between our weather recording intervals... More about our weather records

Advertising

Makassar Weather History for the Previous 24 Hours

Scroll right to see more
 ConditionsComfort  
Time TempWeatherWind HumidityBarometerVisibility
10:30 pm
Sat, Apr 29
79 °FPassing clouds.3 mph100%29.89 "Hg5 mi
10:00 pm81 °FPassing clouds.3 mph79%29.89 "Hg5 mi
9:30 pm82 °FPassing clouds.5 mph74%29.89 "Hg5 mi
8:30 pm82 °FPassing clouds.3 mph74%29.89 "Hg5 mi
8:00 pm84 °FPassing clouds.2 mph70%29.89 "Hg5 mi
7:30 pm84 °FPassing clouds.5 mph70%29.86 "Hg5 mi
6:30 pm86 °FPassing clouds.5 mph70%29.83 "Hg5 mi
6:00 pm86 °FPassing clouds.6 mph70%29.83 "Hg6 mi
5:30 pm88 °FPassing clouds.7 mph66%29.80 "Hg6 mi
5:00 pm88 °FPassing clouds.8 mph66%29.80 "Hg6 mi
4:30 pm90 °FPassing clouds.8 mph63%29.80 "Hg6 mi
3:30 pm91 °FPassing clouds.8 mph56%29.80 "Hg6 mi
3:00 pm91 °FPassing clouds.7 mph56%29.77 "Hg6 mi
2:30 pm91 °FPassing clouds.7 mph59%29.80 "Hg6 mi
2:00 pm91 °FPassing clouds.9 mph56%29.80 "Hg6 mi
1:30 pm91 °FPassing clouds.7 mph59%29.80 "Hg6 mi
1:00 pm91 °FPassing clouds.5 mph63%29.80 "Hg6 mi
12:30 pm90 °FPassing clouds.7 mph67%29.83 "Hg6 mi
12:00 pm91 °FPassing clouds.5 mph67%29.83 "Hg6 mi
11:30 am90 °FPassing clouds.3 mph67%29.83 "Hg6 mi
11:00 am90 °FPassing clouds.3 mph67%29.86 "Hg6 mi
10:30 am88 °FPassing clouds.2 mph70%29.86 "Hg6 mi
10:00 am90 °FPassing clouds.2 mph67%29.86 "Hg6 mi
9:30 am88 °FPassing clouds.3 mph75%29.86 "Hg6 mi
9:00 am88 °FPassing clouds.2 mph70%29.89 "Hg6 mi
8:30 am86 °FPassing clouds.1 mph75%29.89 "Hg6 mi
8:00 am82 °FPassing clouds.2 mph84%29.89 "Hg6 mi
7:30 am81 °FPassing clouds.2 mph89%29.86 "Hg6 mi
7:00 am75 °FPassing clouds.3 mph83%29.86 "Hg6 mi
6:30 am75 °FPassing clouds.2 mph83%29.86 "Hg6 mi
6:00 am77 °FPassing clouds.2 mph79%29.86 "Hg5 mi
5:30 am77 °FPassing clouds.1 mph79%29.83 "Hg5 mi
5:00 am77 °FPassing clouds.1 mph79%29.83 "Hg5 mi
4:30 am77 °FPassing clouds.2 mph79%29.83 "Hg5 mi
4:00 am77 °FPassing clouds.2 mph79%29.83 "Hg5 mi
3:30 am77 °FPassing clouds.2 mph83%29.83 "Hg5 mi
3:00 am77 °FPassing clouds.3 mph83%29.83 "Hg5 mi
2:30 am79 °FPassing clouds.1 mph84%29.83 "Hg5 mi
2:00 am79 °FPassing clouds.1 mph84%29.83 "Hg5 mi
1:30 am79 °FPassing clouds.2 mph84%29.83 "Hg5 mi
1:00 am79 °FPassing clouds.2 mph84%29.86 "Hg5 mi
12:30 am82 °FPassing clouds.2 mph74%29.86 "Hg5 mi
12:00 am81 °FPassing clouds.1 mph79%29.86 "Hg5 mi
11:30 pm
Fri, Apr 28
81 °FPassing clouds.2 mph79%29.86 "Hg5 mi
11:00 pm81 °FPassing clouds.1 mph79%29.86 "Hg5 mi
Weather by CustomWeather, © 2017

See weather overviewHow to use our weather pages